Location: *
(46.3500°N, 10.9000°E)
Time: 11:07:03
(UTC+00:00)

STARLINK-29 - Pass Details

Date: 09 April 2020
Orbit: 387 x 401 km, 53.0° (Epoch: 26 May)

Event Time Altitude Azimuth Distance (km) Brightness Sun altitude
Rises 20:12:18 0° 265° (W) 2,287 7.5 -21.8°
Reaches altitude 10° 20:14:28 10° 275° (W) 1,435 6.5 -22.1°
Maximum altitude 20:17:26 34° 343° (NNW) 674 4.5 -22.5°
Enters shadow 20:17:55 32° 3° (N) 704 4.4 -22.5°
